[[{"header":{"parameterUnit":"m.s-1","parameterCategory":1,"la1":30.2991,"la2":30.254,"lo1":-89.0895,"lo2":-89.0444,"dy":0.0017,"dx":0.0017,"nx":28,"ny":28,"refTime":"2025-07-26T21:00:00:Z","depth":0,"parameterNumber":2,"parameterNumberName":"U-component_of_WINDS"},"data":[0,0,0,0,0,0,0,0,0,0,0,0,0,0,0,0,0,0,0,0,0,0,0,0,0,0,0,0,0,0,0,0,0,0,0,0,0,0,0,0,0,0,0,0,0,0,0,0,0,0,0,0,0,0,0,0,0,0,-0.2588,-0.2587,0,-0.2481,-0.2479,-0.2478,-0.2425,-0.2425,-0.2425,-0.2425,-0.2313,-0.231,-0.2307,0,0,0,0,0,0,0,0,0,0,0,0,0,-0.2747,-0.2744,-0.2588,-0.2587,-0.2586,-0.2481,-0.2479,-0.2478,-0.2425,-0.2425,-0.2425,-0.2425,-0.2314,-0.231,-0.2306,0,0,0,0,0,0,0,0,0,0,0,0,0,-0.2663,-0.2743,-0.2589,-0.2547,-0.2542,-0.2481,-0.2479,-0.2477,-0.2425,-0.2425,-0.2425,-0.2425,-0.2315,-0.231,-0.2306,-0.2278,0,0,-0.2292,-0.229,0,0,0,0,0,0,0,0,-0.2667,-0.2657,-0.2554,-0.255,-0.2544,-0.2466,-0.2494,-0.2411,-0.2425,-0.2469,-0.2425,-0.2425,-0.2364,-0.2355,-0.2335,-0.2273,-0.2268,-0.2292,-0.2289,-0.2287,-0.2286,0,0,0,0,0,0,0,-0.2673,-0.2661,-0.2546,-0.2553,-0.2547,-0.2533,-0.2521,-0.2478,-0.2418,-0.2465,-0.2461,-0.2449,-0.2361,-0.2339,-0.2332,-0.2266,-0.2292,-0.2288,-0.2285,-0.2283,-0.2176,-0.2176,0,0,0,0,0,0,-0.2686,-0.2666,-0.2549,-0.2542,-0.2607,-0.253,-0.2517,-0.2491,-0.2418,-0.2407,-0.245,-0.2447,-0.2347,-0.2337,-0.2328,-0.229,-0.2287,-0.2283,-0.228,-0.2177,-0.2176,-0.2176,0,0,0,0,0,0,-0.269,-0.2676,-0.2553,-0.2603,-0.2587,-0.2527,-0.2499,-0.2489,-0.2467,-0.2406,-0.2395,-0.2439,-0.2347,-0.2334,-0.2291,-0.2286,-0.2281,-0.2277,-0.2177,-0.2177,-0.2176,-0.2216,0,0,0,0,0,0,-0.2695,-0.2678,-0.2667,-0.2603,-0.2584,-0.2519,-0.2499,-0.2487,-0.246,-0.2456,-0.2393,-0.2382,-0.2346,-0.2298,-0.2287,-0.2279,-0.2273,-0.2177,-0.2177,-0.2176,-0.2215,-0.2217,-0.2219,0,0,0,0,0,-0.27,-0.2682,-0.2667,-0.2653,-0.2569,-0.2519,-0.2508,-0.2467,-0.246,-0.2448,-0.2409,-0.2384,-0.2288,-0.2294,-0.2281,-0.2272,-0.2177,-0.2177,-0.2176,-0.2214,-0.2216,-0.2219,0,0,0,0,0,0,-0.2745,-0.2673,-0.2655,-0.2615,-0.2574,-0.251,-0.2494,-0.2471,-0.243,-0.2428,-0.2378,-0.2364,-0.2325,-0.2294,-0.2302,-0.2242,-0.223,-0.2227,-0.2263,-0.2265,-0.2267,-0.2275,-0.227,0,0,0,0,0,-0.2751,-0.2716,-0.2654,-0.2625,-0.2606,-0.2554,-0.253,-0.2502,-0.2457,-0.2439,-0.2396,-0.2353,-0.2313,-0.2287,-0.2247,-0.221,-0.2195,-0.2198,-0.22,-0.2202,-0.22,-0.2178,-0.2178,-0.2175,-0.2175,-0.2175,0,0,-0.2761,-0.2717,-0.2698,-0.2633,-0.2598,-0.2563,-0.2539,-0.2503,-0.2477,-0.2433,-0.239,-0.2358,-0.2306,-0.2266,-0.2246,-0.2239,-0.2197,-0.2201,-0.2203,-0.22,-0.2178,-0.2178,-0.2179,-0.2175,-0.2175,-0.2175,0,0,-0.2762,-0.2726,-0.2698,-0.2663,-0.261,-0.2576,-0.2569,-0.2509,-0.2486,-0.2443,-0.2409,-0.2377,-0.2309,-0.2274,-0.2247,-0.2236,-0.2212,-0.2224,-0.2235,-0.2215,-0.2215,-0.2215,-0.2211,-0.2211,-0.2222,-0.2223,-0.2223,0,-0.2782,-0.2728,-0.2686,-0.2652,-0.2625,-0.2585,-0.2556,-0.2524,-0.246,-0.2442,-0.2435,-0.235,-0.2312,-0.2263,-0.2261,-0.224,-0.2231,-0.2231,-0.2219,-0.2218,-0.2217,-0.2213,-0.2212,-0.2224,-0.2224,-0.2224,-0.2224,0,-0.2755,-0.2719,-0.2702,-0.2643,-0.2614,-0.2583,-0.2535,-0.251,-0.2485,-0.2452,-0.2408,-0.2362,-0.2312,-0.2298,-0.2273,-0.2246,-0.2243,-0.2228,-0.2216,-0.222,-0.2216,-0.2214,-0.2227,-0.2226,-0.2226,-0.2225,0,0,-0.278,-0.2699,-0.2694,-0.2667,-0.2606,-0.2577,-0.2544,-0.2496,-0.2476,-0.2433,-0.2404,-0.2349,-0.2335,-0.2304,-0.2274,-0.2257,-0.2252,-0.2243,-0.2242,-0.2247,-0.222,-0.2232,-0.2231,-0.2236,-0.2235,-0.2235,-0.2224,0,-0.2773,-0.2713,-0.2674,-0.2629,-0.2595,-0.2557,-0.2529,-0.2488,-0.2457,-0.2423,-0.2387,-0.2349,-0.2333,-0.2314,-0.2295,-0.2257,-0.2246,-0.2257,-0.2208,-0.2207,-0.2222,-0.2228,-0.224,-0.2232,-0.2222,-0.2222,-0.2222,0,-0.2756,-0.2716,-0.2668,-0.2612,-0.2596,-0.2571,-0.2524,-0.2493,-0.2446,-0.2424,-0.2391,-0.2362,-0.2325,-0.2317,-0.2266,-0.2275,-0.2252,-0.2231,-0.2229,-0.2223,-0.2214,-0.2222,-0.2229,-0.2228,-0.2218,-0.2219,-0.2219,0,-0.278,-0.2714,-0.2676,-0.2654,-0.2588,-0.2571,-0.2543,-0.2496,-0.247,-0.2429,-0.2412,-0.2367,-0.2342,-0.2308,-0.2267,-0.2265,-0.2221,-0.2209,-0.2201,-0.2202,-0.2193,-0.2194,-0.2197,-0.218,-0.218,-0.218,-0.218,0,-0.2775,-0.2747,-0.2686,-0.2663,-0.2631,-0.2587,-0.2556,-0.2524,-0.2484,-0.2454,-0.2418,-0.2391,-0.2339,-0.2305,-0.2273,-0.2236,-0.2225,-0.2206,-0.2198,-0.2209,-0.2211,-0.2193,-0.2193,-0.2179,-0.2179,-0.2179,-0.218,0,-0.2796,-0.2754,-0.2711,-0.2652,-0.2636,-0.2615,-0.2564,-0.254,-0.2507,-0.247,-0.2459,-0.2406,-0.2365,-0.2321,-0.2264,-0.2243,-0.2207,-0.2196,-0.2223,-0.2219,-0.2214,-0.2215,-0.2205,-0.2201,-0.2187,-0.2187,-0.2187,0,-0.2795,-0.2773,-0.2712,-0.269,-0.2663,-0.2627,-0.2601,-0.2557,-0.253,-0.2477,-0.2459,-0.2416,-0.2378,-0.2314,-0.227,-0.2227,-0.2214,-0.2214,-0.2207,-0.222,-0.2214,-0.2216,-0.2214,-0.2216,-0.2216,-0.2216,-0.2216,0,-0.28,-0.278,-0.2744,-0.27,-0.267,-0.2633,-0.2595,-0.2579,-0.2527,-0.25,-0.2457,-0.2429,-0.2372,-0.2328,-0.228,-0.225,-0.2225,-0.2219,-0.2215,-0.2226,-0.2243,-0.2234,-0.2229,-0.2219,-0.2219,-0.2219,-0.2219,-0.2219,-0.2809,-0.2788,-0.2742,-0.2703,-0.267,-0.2635,-0.2611,-0.2575,-0.2539,-0.249,-0.2466,-0.2424,-0.2378,-0.2311,-0.2282,-0.2248,-0.2241,-0.2235,-0.2233,-0.2233,-0.2236,-0.2249,-0.2239,-0.2239,-0.2239,-0.2239,-0.2239,0,-0.2812,-0.2781,-0.2745,-0.2693,-0.2663,-0.2642,-0.2599,-0.2575,-0.2539,-0.2499,-0.2463,-0.2415,-0.2373,-0.2327,-0.2283,-0.2265,-0.2252,-0.2255,-0.2255,-0.2249,-0.2245,-0.2253,-0.2266,-0.2266,-0.2266,-0.2266,-0.2266,-0.2266,-0.2809,-0.2772,-0.2748,-0.2695,-0.2663,-0.2622,-0.26,-0.2568,-0.2536,-0.2484,-0.245,-0.242,-0.2378,-0.233,-0.2292,-0.2279,-0.2264,-0.227,-0.2255,-0.2251,-0.2249,-0.2247,-0.2254,-0.2268,-0.2268,-0.2261,-0.2261,-0.2261]},{"header":{"parameterUnit":"m.s-1","parameterCategory":1,"la1":30.2991,"la2":30.254,"lo1":-89.0895,"lo2":-89.0444,"dy":0.0017,"dx":0.0017,"nx":28,"ny":28,"refTime":"2025-07-26T21:00:00:Z","depth":0,"parameterNumber":3,"parameterNumberName":"V-component_of_WINDS"},"data":[0,0,0,0,0,0,0,0,0,0,0,0,0,0,0,0,0,0,0,0,0,0,0,0,0,0,0,0,0,0,0,0,0,0,0,0,0,0,0,0,0,0,0,0,0,0,0,0,0,0,0,0,0,0,0,0,0,0,1.5411,1.5411,0,1.5415,1.5415,1.5415,1.5426,1.5426,1.5426,1.5427,1.5429,1.5429,1.5429,0,0,0,0,0,0,0,0,0,0,0,0,0,1.5411,1.5411,1.5411,1.5411,1.5411,1.5415,1.5415,1.5415,1.5426,1.5426,1.5426,1.5427,1.5429,1.5429,1.5429,0,0,0,0,0,0,0,0,0,0,0,0,0,1.5412,1.5411,1.5411,1.5417,1.5418,1.5415,1.5415,1.5415,1.5426,1.5426,1.5427,1.5427,1.5429,1.5429,1.5429,1.542,0,0,1.5428,1.5428,0,0,0,0,0,0,0,0,1.5412,1.5412,1.5416,1.5417,1.5417,1.542,1.5416,1.5417,1.5426,1.5423,1.5427,1.5427,1.5426,1.5426,1.5426,1.542,1.542,1.5428,1.5428,1.5428,1.5428,0,0,0,0,0,0,0,1.5412,1.5412,1.5413,1.5416,1.5417,1.5419,1.5419,1.5416,1.5422,1.5423,1.5424,1.5424,1.5426,1.5426,1.5426,1.542,1.5428,1.5428,1.5427,1.5427,1.5405,1.5405,0,0,0,0,0,0,1.5411,1.5412,1.5412,1.5413,1.5416,1.5418,1.5419,1.5419,1.5422,1.5423,1.5424,1.5425,1.5426,1.5426,1.5426,1.5414,1.5428,1.5427,1.5427,1.5406,1.5405,1.5405,0,0,0,0,0,0,1.5411,1.5411,1.5412,1.5413,1.5413,1.5418,1.5418,1.5419,1.5419,1.5423,1.5424,1.5423,1.5426,1.5426,1.5421,1.5415,1.5427,1.5427,1.5406,1.5405,1.5405,1.5392,0,0,0,0,0,0,1.5411,1.5411,1.5409,1.5412,1.5413,1.5408,1.5417,1.5419,1.5418,1.5419,1.5422,1.5423,1.5427,1.5421,1.5421,1.5414,1.5427,1.5407,1.5406,1.5405,1.5393,1.5391,1.5389,0,0,0,0,0,1.5411,1.5405,1.5408,1.5408,1.541,1.5408,1.5408,1.5413,1.5418,1.5415,1.5417,1.5423,1.5416,1.5421,1.542,1.5414,1.5407,1.5406,1.5405,1.5394,1.5391,1.5389,0,0,0,0,0,0,1.54,1.5406,1.541,1.5405,1.5405,1.541,1.5406,1.541,1.541,1.5411,1.5417,1.5417,1.541,1.5412,1.5417,1.5404,1.5412,1.5411,1.5404,1.5401,1.54,1.5399,1.5427,0,0,0,0,0,1.5397,1.5396,1.54,1.5395,1.5396,1.5401,1.54,1.5404,1.5405,1.5405,1.5407,1.5407,1.5405,1.5403,1.5402,1.5393,1.5393,1.5389,1.5387,1.5385,1.5384,1.5378,1.5375,1.5401,1.5401,1.5401,0,0,1.5391,1.5394,1.5392,1.5393,1.5394,1.5392,1.5401,1.5398,1.5396,1.5405,1.5399,1.5401,1.5401,1.5394,1.5391,1.5395,1.5376,1.5384,1.5383,1.5382,1.5376,1.5374,1.5371,1.5401,1.5401,1.5401,0,0,1.5378,1.538,1.5376,1.5377,1.5378,1.5381,1.538,1.5383,1.5385,1.538,1.5386,1.5382,1.5379,1.5378,1.5378,1.5363,1.5367,1.5362,1.5352,1.5346,1.5344,1.5342,1.5335,1.5333,1.5361,1.5361,1.5361,0,1.537,1.5367,1.5373,1.5369,1.5368,1.5377,1.5371,1.5371,1.5372,1.5371,1.5376,1.537,1.5371,1.5363,1.5359,1.5359,1.5356,1.5362,1.5344,1.5342,1.534,1.5334,1.5331,1.536,1.536,1.536,1.5361,0,1.5356,1.5353,1.5349,1.535,1.5349,1.5344,1.5348,1.5347,1.535,1.5352,1.5346,1.5347,1.5345,1.5344,1.5348,1.5335,1.5338,1.5343,1.5351,1.5337,1.5331,1.5329,1.5359,1.536,1.536,1.536,0,0,1.5336,1.5339,1.5338,1.5337,1.5339,1.5337,1.5332,1.533,1.5327,1.5327,1.5322,1.5318,1.5323,1.5322,1.5326,1.532,1.5306,1.5326,1.5326,1.5321,1.5291,1.5286,1.5283,1.5309,1.5309,1.5309,1.529,0,1.5323,1.5315,1.532,1.5311,1.5308,1.5315,1.531,1.531,1.5312,1.5308,1.531,1.5306,1.5314,1.5313,1.5308,1.5309,1.53,1.5311,1.5303,1.5303,1.5302,1.528,1.5275,1.5258,1.5288,1.5288,1.5287,0,1.5306,1.5305,1.5296,1.5297,1.5296,1.5292,1.5289,1.5287,1.5286,1.5287,1.5286,1.529,1.5284,1.5292,1.5282,1.5289,1.5287,1.5287,1.5286,1.5285,1.5294,1.5277,1.5253,1.5249,1.5284,1.5284,1.5284,0,1.5291,1.5287,1.5281,1.5281,1.5282,1.5279,1.5279,1.5279,1.5277,1.5274,1.5273,1.527,1.5268,1.5265,1.5267,1.5273,1.5257,1.5266,1.5256,1.5256,1.5252,1.5252,1.5225,1.5252,1.5252,1.5252,1.5252,0,1.5275,1.5269,1.5274,1.527,1.5262,1.5267,1.526,1.5261,1.526,1.5255,1.5261,1.5256,1.5261,1.5256,1.5258,1.5249,1.5248,1.5248,1.5248,1.5247,1.5246,1.5244,1.5245,1.5252,1.5252,1.5252,1.5252,0,1.5257,1.526,1.5253,1.5255,1.5255,1.5249,1.525,1.5245,1.5247,1.5241,1.524,1.5242,1.5236,1.5239,1.5233,1.5234,1.5222,1.5225,1.5222,1.5222,1.5212,1.5212,1.5182,1.5178,1.5209,1.5208,1.5208,0,1.5246,1.5241,1.5242,1.5239,1.5239,1.5235,1.5232,1.5237,1.5234,1.5232,1.5227,1.5222,1.5218,1.5208,1.5209,1.5204,1.5206,1.5195,1.5205,1.5203,1.5203,1.5203,1.5202,1.5193,1.5193,1.5193,1.5192,0,1.5225,1.5227,1.5224,1.5221,1.5218,1.5215,1.5214,1.5211,1.5215,1.5211,1.5205,1.5202,1.5196,1.519,1.5185,1.5184,1.5188,1.5189,1.5187,1.5184,1.5182,1.5181,1.5215,1.519,1.519,1.519,1.519,1.519,1.521,1.5205,1.5204,1.52,1.5199,1.5196,1.5192,1.5192,1.5188,1.5183,1.5186,1.5179,1.5176,1.517,1.5169,1.5162,1.5166,1.5162,1.5161,1.516,1.5158,1.5184,1.5161,1.5161,1.5162,1.5162,1.5162,0,1.5188,1.5188,1.5184,1.5181,1.5177,1.5181,1.5179,1.5175,1.5169,1.5167,1.5162,1.5155,1.5149,1.5148,1.5142,1.5137,1.5138,1.5135,1.5135,1.5134,1.5156,1.5158,1.5134,1.5134,1.5134,1.5134,1.5134,1.5134,1.5177,1.5168,1.5169,1.516,1.5159,1.5153,1.5151,1.5148,1.5146,1.5137,1.5132,1.5132,1.513,1.5123,1.5117,1.5117,1.5114,1.5109,1.511,1.513,1.5133,1.5135,1.5137,1.5109,1.5109,1.5088,1.5088,1.5088]}]]